Regional Weather Roundup
Issued by NWS State College, PA

Home | Current Version | Previous Version | Graphics & Text | Print | Product List | Glossary On
Versions: 1 2 3 4 5 6 7 8 9 10 11 12 13 14 15 16 17 18 19 20 21 22 23 24 25 26 27 28 29 30 31 32 33 34 35 36 37 38 39 40 41 42 43 44 45 46 47 48 49 50
000
ASUS41 KCTP 300403
RWRCTP

REGIONAL WEATHER ROUNDUP
NATIONAL WEATHER SERVICE STATE COLLEGE PA
1100 PM EST THU JAN 29 2015

Note: "fair" indicates few or no clouds below 12,000 feet with no
significant weather and/or obstructions to visibility.

* = STATION THAT DOES NOT REPORT PRECIPITATION /E.G. RAIN...SNOW...ETC/
    THUNDER OR FOG.

PAZ002>004-007>009-013>016-020>023-029>032-300500-
WESTERN PENNSYLVANIA

CITY           SKY/WX    TMP DP  RH WIND       PRES   REMARKS
ERIE           CLOUDY    30  26  85 W12       29.93R FOG
MEADVILLE      CLOUDY    27  24  89 W10G23    29.90R FOG
FRANKLIN*      CLOUDY    28  23  80 W10G17    29.90R
NEW CASTLE     LGT SNOW  30  28  92 W10       29.96R FOG
BEAVER COUNTY  NOT AVBL
BUTLER*        CLOUDY    30  27  86 W13G18    29.93R
PITTSBURGH INT LGT SNOW  33  29  85 W15       29.93R FOG
PITTSBURGH     CLOUDY    33  27  78 W14G24    29.91R
INDIANA*       CLOUDY    34  32  93 NW15G33   29.90R
LATROBE        CLOUDY    34  34 100 W12G25    29.92R
WASHINGTON CO* CLOUDY    34  30  86 W7        29.96R
$$

PAZ004>006-010>012-017>019-024>028-033>037-041-042-045-046-049>053-300500-
CENTRAL PENNSYLVANIA

CITY           SKY/WX    TMP DP  RH WIND       PRES   REMARKS
BRADFORD       LGT SNOW  30  25  81 W16G29    29.76R
DUBOIS         CLOUDY    32  29  88 W18G30    29.80R
CLEARFIELD     LGT SNOW  26  24  92 N5        29.80F FOG
JOHNSTOWN      LGT SNOW  32  30  92 W15G30    29.79S FOG
ALTOONA        CLOUDY    28  26  92 CALM      29.85S FOG
STATE COLLEGE  LGT SNOW  26  24  94 S6        29.85F
WILLIAMSPORT   LGT SNOW  28  22  78 NE8       29.90F
SELINSGROVE    CLOUDY    29  23  78 SW6       29.92F
FT INDIANTOWN  FLURRIES  26  24  92 NE2       29.94F
CAPITAL CITY   FLURRIES  28  25  88 E5        29.94F
HARRISBURG     FLURRIES  29  25  85 E5        29.93F
YORK           CLOUDY    31  25  78 CALM      29.92F
$$

PAZ038>040-043-044-047-048-054-055-060>062-067>071-300500-
EASTERN PENNSYLVANIA

CITY           SKY/WX    TMP DP  RH WIND       PRES   REMARKS
SCRANTON       CLOUDY    28  20  71 SW6       29.88F
MOUNT POCONO   LGT SNOW  21  18  88 SE6       29.85F FOG     WCI  13
ALLENTOWN      CLOUDY    28  23  81 SE3       29.97F
QUAKERTOWN*    CLOUDY    28  25  86 S3        29.97F
READING        CLOUDY    29  24  82 SE3       29.95F
LANCASTER      CLOUDY    29  23  78 SE3       29.94F
COATESVILLE    CLOUDY    32  27  80 SE6       29.94F
POTTSTOWN      LGT SNOW  28  25  88 VRB3      29.98F FOG
BLUE BELL      CLOUDY    32  27  80 S6        29.98F
DOYLESTOWN     CLOUDY    27  25  92 SE3       29.97F
WILLOW GROVE   NOT AVBL
NORTH PHILA    CLOUDY    33  22  63 SE5       30.01F
PHILADELPHIA   CLOUDY    33  22  63 VRB6      30.01F
$$



USA.gov is the U.S. government's official web portal to all federal, state and local government web resources and services.